This is the latest recevied weather packets stored in our database for station/object K0SDS. If no packets are shown the sender has not sent any weather packets the latest 10 day(s).
| Time | Temp. | Humidity | Pressure | Rain* | Wind** | Luminosity | Snow |
|---|---|---|---|---|---|---|---|
| 1778189032 | 21.67° C | 42% | 1010.4 hPa | 0 mm | - | 518 W/m² | - |
| 1778188728 | 21.67° C | 42% | 1010.4 hPa | 0 mm | - | 550 W/m² | - |
| 1778188425 | 21.11° C | 42% | 1010.4 hPa | 0 mm | - | 482 W/m² | - |
| 1778188122 | 20.56° C | 44% | 1010.5 hPa | 0 mm | - | 314 W/m² | - |
| 1778187819 | 21.11° C | 44% | 1010.5 hPa | 0 mm | - | 470 W/m² | - |
| 1778187515 | 21.11° C | 43% | 1010.7 hPa | 0 mm | - | 356 W/m² | - |
| 1778187213 | 20.56° C | 43% | 1010.8 hPa | 0 mm | - | 429 W/m² | - |
| 1778186909 | 20.56° C | 44% | 1010.9 hPa | 0 mm | - | 560 W/m² | - |
| 1778186606 | 20.56° C | 42% | 1011.3 hPa | 0 mm | - | 415 W/m² | - |
| 1778186304 | 21.11° C | 44% | 1011 hPa | 0 mm | - | 527 W/m² | - |
| 1778186002 | 21.11° C | 44% | 1011.5 hPa | 0 mm | - | 606 W/m² | - |
| 1778185697 | 20.56° C | 44% | 1011.3 hPa | 0 mm | - | 611 W/m² | - |
| 1778185394 | 20.56° C | 43% | 1011.3 hPa | 0 mm | - | 616 W/m² | - |
| 1778185089 | 20.56° C | 44% | 1011.7 hPa | 0 mm | - | 615 W/m² | - |
| 1778184786 | 20.56° C | 45% | 1011.5 hPa | 0 mm | - | 603 W/m² | - |
| 1778184482 | 20.56° C | 48% | 1011.8 hPa | 0 mm | - | 559 W/m² | - |
| 1778184178 | 20° C | 44% | 1011.8 hPa | 0 mm | - | 553 W/m² | - |
| 1778183874 | 20.56° C | 45% | 1012 hPa | 0 mm | - | 629 W/m² | - |
| 1778183572 | 20° C | 47% | 1011.9 hPa | 0 mm | - | 636 W/m² | - |
| 1778183269 | 20.56° C | 45% | 1012.1 hPa | 0 mm | - | 618 W/m² | - |
| 1778182965 | 20.56° C | 48% | 1012.3 hPa | 0 mm | - | 619 W/m² | - |
| 1778182661 | 20° C | 50% | 1012.1 hPa | 0 mm | - | 624 W/m² | - |
| 1778182358 | 19.44° C | 48% | 1012.2 hPa | 0 mm | - | 676 W/m² | - |
| 1778182054 | 20° C | 47% | 1012.1 hPa | 0 mm | - | 665 W/m² | - |
| 1778181751 | 19.44° C | 47% | 1012.3 hPa | 0 mm | - | 642 W/m² | - |
* Rain latest hour (hover to see other rain measurements)
** Current wind speed in m/s (hover to see current wind gust speed)